This is the latest recevied weather packets stored in our database for station/object WC4PEM. If no packets are shown the sender has not sent any weather packets the latest 1 day(s).
| Time | Temp. | Humidity | Pressure | Rain* | Wind** | Luminosity | Snow |
|---|---|---|---|---|---|---|---|
| 1836274651 | 25.56° C | 83% | 1015.5 hPa | 0 mm | 1.79 m/s, 45° | - | - |
| 1836274501 | 25.56° C | 83% | 1015.4 hPa | 0 mm | 2.24 m/s, 55° | - | - |
| 1836274351 | 25.56° C | 83% | 1015.6 hPa | 0 mm | 1.79 m/s, 43° | - | - |
| 1836274201 | 25.56° C | 83% | 1015.5 hPa | 0 mm | 1.79 m/s, 54° | - | - |
| 1836274051 | 25.56° C | 83% | 1015.6 hPa | 0 mm | 2.24 m/s, 66° | - | - |
| 1778041466 | 21.67° C | 77% | 1015.9 hPa | 0 mm | 1.34 m/s, 142° | - | - |
| 1778041166 | 21.67° C | 76% | 1015.9 hPa | 0 mm | 1.79 m/s, 115° | - | - |
| 1778040866 | 21.67° C | 76% | 1015.9 hPa | 0 mm | 1.34 m/s, 54° | - | - |
| 1778040566 | 21.67° C | 76% | 1015.9 hPa | 0 mm | 1.34 m/s, 107° | - | - |
| 1778040266 | 21.67° C | 76% | 1015.8 hPa | 0 mm | 1.34 m/s, 117° | - | - |
| 1778039966 | 21.67° C | 76% | 1015.9 hPa | 0 mm | 0.89 m/s, 93° | - | - |
| 1778039666 | 21.67° C | 75% | 1015.9 hPa | 0 mm | 0.89 m/s, 120° | - | - |
| 1778039607 | 22.22° C | 75% | 1015.9 hPa | 0 mm | 0.89 m/s, 111° | - | - |
| 1778039366 | 22.22° C | 75% | 1015.9 hPa | 0 mm | 0.89 m/s, 111° | - | - |
| 1778039157 | 22.22° C | 75% | 1015.9 hPa | 0 mm | 0.89 m/s, 110° | - | - |
| 1778039066 | 22.22° C | 75% | 1016 hPa | 0 mm | 0.89 m/s, 131° | - | - |
| 1778038766 | 22.22° C | 75% | 1015.9 hPa | 0 mm | 0.89 m/s, 110° | - | - |
| 1778038466 | 22.22° C | 75% | 1016 hPa | 0 mm | 0.89 m/s, 119° | - | - |
| 1778038237 | 22.22° C | 74% | 1016 hPa | 0 mm | 0.89 m/s, 132° | - | - |
| 1778038204 | 22.22° C | 74% | 1016 hPa | 0 mm | 0.89 m/s, 132° | - | - |
| 1778038166 | 22.22° C | 74% | 1016.1 hPa | 0 mm | 0.89 m/s, 141° | - | - |
| 1778037866 | 22.22° C | 74% | 1016 hPa | 0 mm | 0.89 m/s, 132° | - | - |
| 1778037566 | 22.22° C | 73% | 1016 hPa | 0 mm | 0.89 m/s, 111° | - | - |
| 1778037266 | 22.78° C | 73% | 1016 hPa | 0 mm | 1.34 m/s, 111° | - | - |
| 1778036966 | 22.78° C | 73% | 1016 hPa | 0 mm | 1.34 m/s, 106° | - | - |
* Rain latest hour (hover to see other rain measurements)
** Current wind speed in m/s (hover to see current wind gust speed)